Location: Unspecified
(0.0000°N, 0.0000°E)
Time: 04:33:01
(UTC+00:00)

Envisat - Pass Details

Date: 13 November 2019
Orbit: 764 x 766 km, 98.1° (Epoch: 11 November)

Event Time Altitude Azimuth Distance (km) Brightness Sun altitude
Rises 19:05:17 0° 187° (S) 3,230 6.6 -19.2°
Reaches altitude 10° 19:07:50 10° 198° (SSW) 2,302 5.9 -19.8°
Maximum altitude 19:12:13 30° 258° (WSW) 1,347 5.0 -20.8°
Drops below altitude 10° 19:16:36 10° 318° (NW) 2,292 5.7 -21.9°
Sets 19:19:09 0° 329° (NNW) 3,215 6.4 -22.5°
